When you browse on this site, cookies collect data to enhance your experience and personalize the content and advertising you see.
Visit our Privacy Policy to learn more. By continuing to use the site, you agree to this use of cookies and data.
  • In Hungary
  • List of Countries
  • For 7 days
  • Water Temperature
  • Satellite Maps
  • Weather Map
  • News
  • Weather Widgets
  • user-avatar
    Login

    Hourly Weather Ceres

    Today, 25 March, Monday

    Time Temperature Precipitation Wind Pressure Humidity
    00:00 +9°C° 0 mm 1 mps 764 mmHg 81%
    01:00 +9°C° 0 mm 1 mps 764 mmHg 80%
    02:00 +9°C° 0 mm 1 mps 764 mmHg 78%
    03:00 +8°C° 0 mm 2 mps 763 mmHg 77%
    04:00 +8°C° 0 mm 2 mps 763 mmHg 75%
    05:00 +8°C° 0 mm 2 mps 763 mmHg 75%
    06:00 +8°C° 0 mm 2 mps 763 mmHg 75%
    07:00 +8°C° 0 mm 3 mps 763 mmHg 76%
    08:00 +11°C° 0 mm 3 mps 763 mmHg 70%
    09:00 +13°C° 0 mm 4 mps 762 mmHg 65%
    10:00 +17°C° 0 mm 4 mps 762 mmHg 59%
    11:00 +17°C° 0 mm 5 mps 762 mmHg 56%
    12:00 +19°C° 0 mm 5 mps 762 mmHg 53%
    13:00 +21°C° 0 mm 5 mps 762 mmHg 50%
    14:00 +21°C° 0 mm 4 mps 761 mmHg 53%
    15:00 +20°C° 0 mm 3 mps 761 mmHg 56%
    16:00 +20°C° 0 mm 2 mps 761 mmHg 59%
    17:00 +18°C° 0.4 mm 2 mps 761 mmHg 70%
    18:00 +16°C° 0.4 mm 3 mps 762 mmHg 81%
    19:00 +13°C° 0.4 mm 3 mps 762 mmHg 92%
    20:00 +14°C° 0.5 mm 2 mps 762 mmHg 93%
    21:00 +13°C° 0.5 mm 2 mps 762 mmHg 94%
    22:00 +13°C° 0.5 mm 1 mps 762 mmHg 94%
    23:00 +13°C° 1.7 mm 1 mps 762 mmHg 95%

    Tomorrow, 26 March, Tuesday

    Time Temperature Precipitation Wind Pressure Humidity
    00:00 +13°C° 1.7 mm 1 mps 762 mmHg 96%
    01:00 +13°C° 1.7 mm 1 mps 762 mmHg 96%
    02:00 +13°C° 1.6 mm 1 mps 762 mmHg 96%
    03:00 +13°C° 1.6 mm 2 mps 761 mmHg 96%
    04:00 +12°C° 1.6 mm 3 mps 761 mmHg 96%
    05:00 +12°C° 1 mm 2 mps 761 mmHg 95%
    06:00 +12°C° 1 mm 2 mps 761 mmHg 95%
    07:00 +12°C° 1 mm 1 mps 760 mmHg 94%
    08:00 +13°C° 0.9 mm 2 mps 760 mmHg 93%
    09:00 +12°C° 0.9 mm 3 mps 760 mmHg 91%
    10:00 +13°C° 0.9 mm 3 mps 761 mmHg 89%
    11:00 +14°C° 0.1 mm 4 mps 760 mmHg 84%
    12:00 +15°C° 0.1 mm 4 mps 760 mmHg 79%
    13:00 +16°C° 0.1 mm 5 mps 760 mmHg 73%
    14:00 +17°C° 0.7 mm 5 mps 759 mmHg 73%
    15:00 +18°C° 0.7 mm 4 mps 759 mmHg 73%
    16:00 +19°C° 0.7 mm 4 mps 758 mmHg 73%
    17:00 +17°C° 0.5 mm 3 mps 758 mmHg 77%
    18:00 +16°C° 0.5 mm 2 mps 758 mmHg 80%
    19:00 +14°C° 0.5 mm 2 mps 759 mmHg 84%
    20:00 +14°C° 0 mm 2 mps 759 mmHg 85%
    21:00 +13°C° 0 mm 2 mps 759 mmHg 86%
    22:00 +13°C° 0 mm 2 mps 759 mmHg 87%
    23:00 +12°C° 0 mm 2 mps 759 mmHg 87%

    Day after tomorrow, 27 March, Wednesday

    Time Temperature Precipitation Wind Pressure Humidity
    00:00 +12°C° 0 mm 2 mps 759 mmHg 88%
    01:00 +12°C° 0 mm 2 mps 759 mmHg 89%
    02:00 +11°C° 0.2 mm 3 mps 758 mmHg 90%
    03:00 +11°C° 0.2 mm 3 mps 757 mmHg 91%
    04:00 +11°C° 0.2 mm 4 mps 757 mmHg 92%
    05:00 +11°C° 0.5 mm 4 mps 757 mmHg 92%
    06:00 +12°C° 0.5 mm 4 mps 757 mmHg 93%
    07:00 +12°C° 0.5 mm 5 mps 758 mmHg 93%
    08:00 +13°C° 0.4 mm 5 mps 758 mmHg 88%
    09:00 +14°C° 0.4 mm 5 mps 759 mmHg 82%
    10:00 +16°C° 0.4 mm 5 mps 759 mmHg 77%
    11:00 +16°C° 0.3 mm 5 mps 759 mmHg 68%
    12:00 +18°C° 0.3 mm 4 mps 760 mmHg 59%
    13:00 +19°C° 0.3 mm 4 mps 760 mmHg 51%
    14:00 +19°C° 0 mm 4 mps 760 mmHg 51%
    15:00 +18°C° 0 mm 4 mps 760 mmHg 52%
    16:00 +18°C° 0 mm 4 mps 760 mmHg 53%
    17:00 +16°C° 0 mm 3 mps 761 mmHg 59%
    18:00 +13°C° 0 mm 3 mps 762 mmHg 65%
    19:00 +12°C° 0 mm 2 mps 762 mmHg 71%
    20:00 +10°C° 0 mm 2 mps 763 mmHg 74%
    21:00 +11°C° 0 mm 1 mps 764 mmHg 77%
    22:00 +10°C° 0 mm 1 mps 765 mmHg 81%
    23:00 +9°C° 0 mm 1 mps 765 mmHg 82%

    28 March, Thursday

    Time Temperature Precipitation Wind Pressure Humidity
    00:00 +9°C° 0 mm 1 mps 765 mmHg 84%
    01:00 +8°C° 0 mm 0 mps 766 mmHg 86%
    02:00 +7°C° 0 mm 0 mps 766 mmHg 86%
    03:00 +7°C° 0 mm 0 mps 766 mmHg 86%
    04:00 +7°C° 0 mm 0 mps 766 mmHg 86%
    05:00 +8°C° 0 mm 1 mps 767 mmHg 85%
    06:00 +9°C° 0 mm 1 mps 767 mmHg 84%
    07:00 +9°C° 0 mm 1 mps 767 mmHg 83%
    08:00 +11°C° 0 mm 1 mps 767 mmHg 76%
    09:00 +14°C° 0 mm 1 mps 767 mmHg 69%
    10:00 +16°C° 0 mm 1 mps 767 mmHg 63%
    11:00 +16°C° 0.1 mm 1 mps 767 mmHg 59%
    12:00 +18°C° 0.1 mm 1 mps 767 mmHg 54%
    13:00 +19°C° 0.1 mm 1 mps 767 mmHg 50%
    14:00 +18°C° 0.3 mm 2 mps 766 mmHg 53%
    15:00 +18°C° 0.3 mm 2 mps 766 mmHg 55%
    16:00 +17°C° 0.3 mm 3 mps 766 mmHg 58%
    17:00 +14°C° 0.2 mm 3 mps 767 mmHg 64%
    18:00 +13°C° 0.2 mm 3 mps 767 mmHg 70%
    19:00 +11°C° 0.2 mm 3 mps 768 mmHg 76%
    20:00 +10°C° 0 mm 3 mps 768 mmHg 77%
    21:00 +9°C° 0 mm 3 mps 768 mmHg 78%
    22:00 +8°C° 0 mm 3 mps 769 mmHg 79%
    23:00 +8°C° 0 mm 2 mps 769 mmHg 80%

    29 March, Friday

    Time Temperature Precipitation Wind Pressure Humidity
    00:00 +7°C° 0 mm 2 mps 768 mmHg 82%
    01:00 +6°C° 0 mm 2 mps 768 mmHg 83%
    02:00 +6°C° 0 mm 2 mps 768 mmHg 84%
    03:00 +6°C° 0 mm 2 mps 768 mmHg 85%
    04:00 +5°C° 0 mm 2 mps 769 mmHg 87%
    05:00 +6°C° 0 mm 2 mps 769 mmHg 87%
    06:00 +6°C° 0 mm 2 mps 769 mmHg 87%
    07:00 +7°C° 0 mm 2 mps 769 mmHg 87%
    08:00 +8°C° 0 mm 3 mps 769 mmHg 81%
    09:00 +10°C° 0 mm 3 mps 769 mmHg 75%
    10:00 +12°C° 0 mm 4 mps 768 mmHg 70%
    11:00 +14°C° 0 mm 4 mps 768 mmHg 66%
    12:00 +15°C° 0 mm 4 mps 767 mmHg 63%
    13:00 +16°C° 0 mm 5 mps 767 mmHg 59%
    14:00 +16°C° 0 mm 5 mps 766 mmHg 59%
    15:00 +16°C° 0 mm 5 mps 766 mmHg 59%
    16:00 +16°C° 0 mm 5 mps 765 mmHg 59%
    17:00 +15°C° 0 mm 4 mps 766 mmHg 63%
    18:00 +13°C° 0 mm 4 mps 766 mmHg 67%
    19:00 +11°C° 0 mm 4 mps 766 mmHg 70%
    20:00 +11°C° 0 mm 3 mps 767 mmHg 71%
    21:00 +10°C° 0 mm 3 mps 767 mmHg 73%
    22:00 +9°C° 0 mm 3 mps 767 mmHg 74%
    23:00 +9°C° 0 mm 3 mps 767 mmHg 75%

    30 March, Saturday

    Time Temperature Precipitation Wind Pressure Humidity
    00:00 +8°C° 0 mm 3 mps 767 mmHg 77%
    01:00 +8°C° 0 mm 2 mps 767 mmHg 79%
    02:00 +8°C° 0 mm 2 mps 767 mmHg 80%
    03:00 +7°C° 0 mm 2 mps 767 mmHg 81%
    04:00 +7°C° 0 mm 2 mps 767 mmHg 82%
    05:00 +7°C° 0 mm 2 mps 767 mmHg 82%
    06:00 +8°C° 0 mm 2 mps 767 mmHg 81%
    07:00 +8°C° 0 mm 2 mps 767 mmHg 81%
    08:00 +10°C° 0 mm 2 mps 767 mmHg 74%
    09:00 +13°C° 0 mm 2 mps 767 mmHg 67%
    10:00 +15°C° 0 mm 2 mps 766 mmHg 60%
    11:00 +16°C° 0 mm 2 mps 766 mmHg 57%
    12:00 +17°C° 0 mm 2 mps 766 mmHg 54%
    13:00 +19°C° 0 mm 2 mps 765 mmHg 51%
    14:00 +19°C° 0 mm 3 mps 765 mmHg 52%
    15:00 +19°C° 0 mm 3 mps 765 mmHg 53%
    16:00 +19°C° 0 mm 3 mps 765 mmHg 54%
    17:00 +17°C° 0 mm 2 mps 765 mmHg 61%
    18:00 +15°C° 0 mm 2 mps 765 mmHg 67%
    19:00 +13°C° 0 mm 1 mps 766 mmHg 73%
    20:00 +13°C° 0 mm 1 mps 766 mmHg 73%
    21:00 +12°C° 0 mm 2 mps 766 mmHg 73%
    22:00 +12°C° 0 mm 2 mps 767 mmHg 73%
    23:00 +12°C° 0 mm 1 mps 767 mmHg 74%
    Show more